Regional Weather Roundup
Issued by NWS

Home | Current Version | Previous Version | Graphics & Text | Print | Product List | Glossary On
Versions: 1 2 3 4 5 6 7 8 9 10 11 12 13 14 15 16 17 18 19 20 21 22 23 24 25 26 27
000
ASUS45 KCYS 201510
RWRWY

WYOMING REGIONAL WEATHER ROUNDUP
NATIONAL WEATHER SERVICE CHEYENNE WY
800 AM MST MON FEB 20 2017

NOTE:  "FAIR" INDICATES FEW OR NO CLOUDS BELOW 12,000 FEET
WITH NO SIGNIFICANT WEATHER AND/OR OBSTRUCTIONS TO VISIBILITY.

WYZ001-201600-
YELLOWSTONE NATIONAL PARK

CITY           SKY/WX    TMP DP  RH WIND       PRES   REMARKS
LK YELLOWSTONE   N/A     24  24 100 CALM      29.91R
W YELLOWSTONE  NOT AVBL

$$
WYZ002>013-054>058-071-098>099-201600-
NORTHERN WYOMING

CITY           SKY/WX    TMP DP  RH WIND       PRES   REMARKS
JACKSON        FLURRIES  30  28  93 S9        29.95R WCI  22
CODY           FAIR      37  18  46 SE14      29.86R WCI  28
GREYBULL       FAIR      31  26  82 CALM      29.88S
WORLAND        FAIR      31  26  82 S5        29.88S WCI  26
SHERIDAN       FAIR      40  19  43 SW7       29.84R
BUFFALO        FAIR      42  17  36 N9G21     29.85F
GILLETTE       FAIR      38  30  73 SW16      29.86R WCI  29
HULETT         FAIR      37  34  87 SW9       29.86S WCI  31
NEWCASTLE      FAIR      34  34 100 CALM      29.88R

$$
WYZ014>020-022>026-101>103-201600-
CENTRAL WYOMING

CITY           SKY/WX    TMP DP  RH WIND       PRES   REMARKS
BIG PINEY      LGT SNOW  16  14  92 CALM      30.00S
PINEDALE       CLOUDY    19  18  93 CALM      30.03R
DUBOIS         FLURRIES  30  23  74 NW15      29.90S WCI  19
LANDER         FAIR      31  18  58 NW6       29.91S WCI  25
RIVERTON       FAIR      30  20  66 N3        29.92R
CASPER         FAIR      36  20  52 SW16      29.95R WCI  26
DOUGLAS        FAIR      40  18  41 NW12      29.94R WCI  33

$$
WYZ021-027>030-104>119-201600-
SOUTHERN WYOMING

CITY           SKY/WX    TMP DP  RH WIND       PRES   REMARKS
EVANSTON       FAIR      26  22  84 S9        30.01R WCI  17
KEMMERER         N/A     30  27  86 SW6       30.02  WCI  24
FORT BRIDGER   FAIR      28  22  76 W3        30.01F
ROCK SPRINGS   FAIR      31  24  75 NW5       30.02R WCI  26
DIXON            N/A     24  22  94 CALM      30.10S
RAWLINS        FAIR      31  24  75 SW9       30.01R WCI  23
SARATOGA       FAIR      28  27  93 SE8       30.05R WCI  20
LARAMIE        FAIR      33  16  49 W21       29.97R WCI  21
CHEYENNE       FAIR      39  18  42 NW20G26   29.96R WCI  29
TORRINGTON     FAIR      39  17  41 W13       29.91R WCI  31
PINE BLUFFS    FAIR      41  21  45 NW32      29.94R

$$




USA.gov is the U.S. government's official web portal to all federal, state and local government web resources and services.